Terug naar catalogus

STARLINK-11105

ActiefCommunicatieVLEO
NORAD 59758·PAYLOAD·🇺🇸 United States

Gelanceerd May 14, 2024 vanaf Vandenberg Space Force Base

Loading…

Volgende Passages (komende 24 uur)

TLE

VersSource: CelesTrak SupGP

Epoch: Sep 14, 2026, 20:56 UTC

1 59758C 24091F   26257.87270833 -.00005412  00000+0 -44557-4 0  2579
2 59758  53.1568 353.7259 0001128  76.9800   9.9360 15.69726521    12

Volg STARLINK-11105 in realtime met AllMySat

Download on the App Store